Theta_e
294 294 294 294 294 294 294 295 296 299 296 298 298 299 299 299 301 301 307 310 311 315 317 318 319 318 319 327 318 319 321 324 326 328 327 328 327 329 329 330 331 330 332 335 340
294 295 295 294 294 294 294 294 295 295 296 296 298 299 299 299 301 302 308 310 309 309 310 314 316 318 319 327 320 317 320 322 324 322 325 328 328 328 328 328 330 333 335 337 340
300 300 299 296 294 294 294 294 294 294 294 295 295 298 298 298 301 312 311 312 311 309 308 310 313 316 321 326 323 317 319 321 322 319 318 323 325 328 327 326 328 334 337 339 339
300 301 300 300 295 294 294 294 294 294 294 294 295 295 297 298 307 309 306 310 313 316 309 312 313 314 322 326 325 322 319 321 319 320 318 317 321 324 326 326 327 327 329 337 338
301 302 301 300 298 294 294 294 294 294 294 294 294 295 296 299 298 308 307 308 312 315 316 315 313 314 322 323 327 324 320 319 322 321 321 320 319 322 323 328 327 328 331 332 335
298 298 299 301 300 299 297 295 294 293 293 294 294 295 299 301 299 299 302 306 308 312 313 315 313 313 313 315 325 326 324 322 324 324 323 319 318 321 323 326 329 329 332 333 332
299 297 296 298 299 299 299 297 295 293 293 294 294 296 299 295 296 297 298 306 307 309 312 313 313 313 311 312 320 325 324 321 323 323 321 321 318 319 320 324 328 333 332 335 334
299 298 296 298 300 299 299 298 294 292 293 294 295 296 297 296 300 299 300 300 305 306 310 311 313 313 311 309 320 319 320 324 323 324 324 321 322 318 320 321 327 329 334 334 334
299 299 296 298 301 299 299 298 293 295 299 296 296 301 301 301 301 302 303 303 303 306 309 310 312 313 309 307 319 320 320 322 323 324 325 323 320 318 319 319 320 326 333 333 334
299 298 297 298 299 299 299 293 295 299 300 301 301 300 299 300 301 301 301 304 304 304 306 309 312 311 307 307 316 318 321 321 322 322 323 326 325 320 320 319 319 321 328 330 333
299 297 296 299 299 299 294 292 294 299 300 299 300 299 300 300 300 300 300 303 305 304 307 310 313 314 309 309 309 314 319 319 321 322 323 324 324 325 322 322 319 319 321 323 327
298 296 297 299 299 296 292 296 296 296 297 297 297 297 299 300 300 298 298 300 304 306 307 308 312 310 310 308 309 310 310 313 316 318 323 324 324 323 322 322 321 320 319 318 318
296 298 299 300 299 294 297 295 296 297 297 297 299 300 300 301 300 300 299 299 301 305 307 307 309 310 312 311 309 310 310 311 315 313 312 316 319 322 321 320 322 321 321 322 318
299 299 299 299 298 296 298 296 296 296 287 295 300 301 300 300 301 300 300 300 302 304 305 308 307 308 312 312 312 310 310 311 313 317 320 315 324 316 320 321 321 322 322 321 318
299 299 299 298 294 296 293 296 297 298 287 297 300 299 299 300 300 301 302 301 301 302 306 307 308 307 309 313 312 311 310 310 314 314 314 314 317 316 315 317 318 321 322 321 322
299 299 299 297 296 296 293 297 297 291 289 293 298 299 299 299 301 300 301 301 302 302 304 304 304 305 308 308 311 310 309 310 313 313 313 313 317 314 317 317 317 318 321 316 314
300 299 298 297 298 293 295 297 291 288 292 292 292 296 298 299 299 301 301 302 301 300 297 302 304 304 306 309 312 311 309 309 315 315 314 312 314 315 313 308 313 310 316 318 319
300 299 298 298 295 293 296 290 289 289 286 296 297 297 296 298 298 300 301 300 303 303 304 299 300 306 307 310 312 312 309 309 310 314 311 312 314 313 312 310 307 308 309 310 311
299 298 298 297 294 294 296 288 290 288 296 296 296 291 287 295 298 298 298 299 303 303 302 305 303 307 308 308 311 311 310 308 307 303 310 311 309 309 307 305 307 309 309 310 309
298 298 297 295 294 295 292 293 288 295 296 297 296 295 289 288 294 295 300 298 301 301 301 302 304 306 307 309 311 311 309 308 307 304 306 308 308 309 305 306 308 309 310 310 309
298 297 296 295 297 296 288 284 289 296 297 297 296 294 293 295 293 292 300 300 300 300 301 302 304 307 306 311 311 312 311 308 308 305 307 309 306 306 304 308 307 308 308 308 308
298 291 296 295 295 293 286 287 295 295 297 296 297 296 297 295 289 297 298 300 299 301 302 302 299 305 307 306 305 307 310 308 310 307 303 307 306 304 305 306 307 307 308 308 308
296 295 297 294 291 283 288 292 295 295 296 294 295 297 297 297 297 297 298 299 300 302 303 302 303 297 303 308 305 309 309 308 308 305 305 303 306 304 305 305 306 306 307 307 307
296 288 295 294 293 286 283 286 291 297 296 296 295 296 296 296 297 298 296 299 299 299 301 302 303 300 304 302 304 305 307 310 308 305 306 305 305 305 304 304 304 306 306 306 306
297 293 292 287 293 290 289 293 294 294 295 296 296 296 292 291 296 296 296 297 298 297 299 302 300 302 303 303 304 304 305 310 309 308 307 306 307 304 303 302 304 306 305 304 302
297 293 292 291 291 287 284 288 294 293 295 292 294 295 294 291 294 297 297 296 297 297 298 299 301 300 298 301 302 304 305 308 309 308 308 305 305 302 302 304 304 303 302 301 301
295 295 296 293 289 286 286 289 293 293 294 296 295 295 295 296 296 295 296 297 296 296 297 298 300 298 299 299 300 299 301 305 306 307 308 308 306 301 300 302 302 301 301 300 299
Wind_Speed
9 9 10 11 12 12 13 13 16 17 15 14 14 15 16 16 13 9 7 8 12 14 14 12 9 6 4 5 4 3 2 3 4 4 4 14 1 1 7 14 7 6 11 9 25
9 9 10 11 12 12 12 14 15 17 18 16 14 13 15 17 12 6 7 11 13 17 17 13 8 5 2 4 4 5 4 6 5 6 6 11 8 4 4 11 8 13 12 19 27
11 11 11 11 11 12 13 14 16 16 17 18 17 14 13 16 6 6 7 5 8 13 11 10 8 2 3 4 3 5 6 5 2 10 16 10 15 14 5 1 11 20 23 28 29
12 12 13 13 11 11 12 13 14 15 17 16 18 17 13 10 2 8 12 7 4 4 6 8 6 5 3 3 8 4 11 14 3 8 13 10 13 15 0 2 4 20 20 27 28
11 12 13 12 13 12 12 14 15 15 16 17 16 17 12 4 7 10 9 10 3 5 2 5 6 6 5 5 9 4 4 11 4 3 8 15 10 6 17 8 8 18 24 23 25
12 13 12 10 13 14 14 14 14 15 15 15 15 14 7 5 5 3 13 9 8 2 3 5 3 5 7 7 8 3 15 19 6 4 7 5 11 7 9 8 1 16 27 23 21
12 13 13 12 13 14 15 15 14 14 15 14 13 10 10 17 11 13 12 12 14 7 4 5 4 5 3 2 9 9 4 5 12 5 3 8 7 4 16 16 2 23 24 21 18
13 14 14 14 13 13 15 17 15 16 14 14 11 7 10 14 8 9 7 11 13 11 8 9 5 8 7 6 3 6 2 5 4 13 7 4 10 9 14 18 15 18 23 18 17
13 15 14 14 13 14 17 16 15 13 8 9 6 3 10 5 6 7 8 12 11 11 12 11 10 7 4 3 3 6 5 7 4 12 8 12 3 9 5 8 14 15 23 19 18
13 15 13 12 12 16 18 16 7 7 5 4 2 3 5 4 10 13 10 9 11 14 11 11 9 5 4 8 14 4 7 6 6 6 10 16 12 8 18 10 17 16 20 22 26
14 15 13 13 13 15 15 13 8 3 2 5 11 14 16 15 15 17 13 12 12 15 9 13 8 15 16 13 9 2 6 12 8 9 8 19 15 17 15 24 22 19 10 9 19
15 13 12 12 11 11 12 6 7 7 10 14 16 18 14 12 16 25 18 10 8 12 10 6 19 15 10 11 11 14 8 5 2 2 9 9 16 17 13 20 30 20 16 17 11
10 9 10 8 7 7 9 9 11 3 4 11 2 6 6 8 11 26 14 11 9 11 13 17 9 18 13 12 14 16 18 8 2 2 2 5 5 7 7 15 31 31 28 22 13
8 8 8 5 1 4 1 12 5 3 3 5 2 0 4 8 7 13 17 17 6 6 12 11 19 17 15 17 14 15 7 6 6 5 6 2 5 8 15 15 16 34 31 22 16
10 8 6 2 2 0 8 9 3 3 4 5 3 4 12 5 14 3 7 18 9 8 3 4 9 16 19 9 12 10 8 10 6 3 2 2 0 5 11 17 19 28 34 27 20
9 6 2 1 1 3 10 2 2 5 4 5 4 4 4 8 5 11 9 9 9 9 10 13 2 6 5 16 15 7 5 5 4 4 3 8 7 3 8 13 16 20 33 18 15
6 4 3 1 3 7 6 2 4 4 4 7 4 4 6 4 6 4 5 6 6 2 2 5 10 5 7 4 17 13 8 3 4 4 10 13 3 9 3 9 8 9 22 28 30
4 3 2 2 4 5 3 5 5 3 5 4 5 12 1 5 4 7 5 4 3 4 3 5 7 14 13 8 7 12 14 4 8 9 3 11 8 5 15 6 19 24 27 25 23
5 3 3 4 4 4 1 3 5 4 3 6 9 6 6 6 4 6 3 3 2 7 5 3 5 2 7 9 11 10 17 9 5 3 4 5 5 7 3 9 14 18 23 21 20
5 4 4 3 4 4 3 4 2 4 4 3 1 1 2 6 6 5 5 3 2 1 4 1 6 2 3 6 16 7 14 9 1 7 4 4 4 5 7 12 11 14 22 25 29
5 2 2 4 3 3 2 5 3 5 4 2 3 4 4 3 2 3 5 2 3 3 7 2 2 2 1 6 9 13 11 9 5 5 6 4 4 1 6 13 14 17 25 28 26
5 2 1 2 1 1 1 4 2 4 2 2 2 4 4 4 3 2 4 3 8 6 3 3 3 4 6 6 10 6 13 26 9 7 2 3 3 12 12 14 25 22 28 24 24
1 1 1 3 2 2 4 3 4 2 2 1 2 1 3 3 4 3 5 6 10 6 3 1 0 4 6 3 2 4 7 18 7 4 4 5 2 5 18 16 21 26 26 26 24
1 1 0 1 3 4 2 3 4 5 4 3 4 1 3 3 3 3 4 3 5 9 15 4 2 4 2 3 4 6 10 6 17 5 7 5 10 4 6 11 16 24 24 22 18
2 2 2 2 1 1 2 3 2 3 3 3 3 0 3 2 4 3 3 6 4 11 12 3 3 0 1 4 3 4 5 5 10 5 13 16 18 11 9 9 17 25 24 19 16
4 2 2 3 3 1 2 3 3 4 2 4 2 5 2 5 4 4 4 3 3 8 7 8 2 2 2 3 4 4 8 6 6 6 6 14 12 6 15 24 22 25 22 18 15
5 4 3 4 2 3 4 5 4 2 4 9 2 4 3 4 8 16 15 11 6 4 5 5 5 4 2 5 4 4 3 4 5 5 7 16 10 5 8 14 20 21 19 16 13
Wind_Direction
7 3 3 2 1 354 354 356 355 356 360 351 346 335 341 334 310 287 297 254 255 248 256 268 286 299 306 214 217 171 46 240 239 266 282 350 3 150 104 128 112 121 141 175 171
355 354 352 351 349 351 348 343 346 346 347 351 345 343 338 346 336 325 263 285 276 272 257 267 263 287 230 229 207 160 160 228 247 12 343 333 16 314 96 116 93 105 125 152 167
349 346 345 340 342 344 347 345 343 343 343 342 343 342 345 352 359 99 26 326 311 283 272 244 246 233 215 197 221 201 198 222 316 31 359 345 347 350 136 172 175 156 154 164 171
344 342 343 339 332 333 340 342 342 339 336 337 335 341 348 351 77 114 17 356 35 52 226 196 192 151 235 191 226 243 221 225 269 15 358 339 326 334 235 226 10 211 196 177 181
333 332 328 326 331 328 330 335 336 335 333 332 333 335 355 349 271 245 313 325 346 95 93 180 186 162 187 210 231 221 260 263 277 333 337 341 326 303 301 319 281 204 190 190 191
337 334 334 321 324 327 327 326 328 328 325 323 327 334 345 273 309 278 259 279 290 322 119 184 211 212 262 232 189 247 234 254 296 299 315 333 316 330 290 340 162 185 190 191 197
335 333 333 321 316 317 321 322 322 319 316 314 315 321 287 273 295 281 284 257 257 271 255 181 292 272 308 251 216 212 272 293 245 245 261 338 322 241 278 284 232 181 189 195 199
332 333 331 327 317 316 322 321 321 313 309 300 301 301 267 317 328 325 295 269 248 255 246 247 273 284 220 315 159 141 142 237 203 182 224 104 258 297 287 274 263 203 192 200 213
321 330 329 328 317 321 325 321 324 310 336 291 291 302 281 2 328 334 313 300 258 244 233 255 255 237 201 176 186 201 186 208 310 200 186 186 196 212 284 318 304 227 195 206 215
313 325 323 324 323 325 326 334 336 307 15 9 26 303 282 345 322 293 284 293 273 242 266 241 219 199 207 188 205 161 194 204 196 209 200 229 218 266 277 337 323 293 207 210 210
305 316 318 324 324 332 335 357 5 349 297 275 251 271 264 262 273 282 295 295 269 238 218 212 211 211 207 221 253 197 178 204 202 227 173 218 221 228 236 281 290 307 276 240 231
306 314 321 324 327 340 348 46 17 314 304 301 271 264 274 290 276 272 258 280 249 224 210 249 231 212 193 209 225 249 249 235 200 256 204 208 226 219 193 211 247 274 298 322 292
314 320 321 325 325 7 5 2 341 306 288 295 242 274 296 281 269 269 252 254 268 244 216 220 244 204 218 212 207 222 235 223 210 178 61 106 266 218 218 216 228 245 260 277 288
326 324 326 324 19 16 285 323 19 351 57 283 225 176 334 320 282 300 252 224 225 232 227 237 239 240 222 220 213 225 202 204 174 171 206 195 258 214 215 222 223 233 238 247 279
302 318 323 331 319 318 319 338 346 16 38 282 318 305 329 258 293 265 322 191 237 224 173 230 211 228 223 243 220 221 186 198 157 120 120 244 179 268 194 214 220 225 230 227 236
280 300 297 66 313 334 342 37 19 51 270 319 318 306 308 302 239 275 285 198 237 243 228 254 262 309 321 217 234 249 167 158 118 112 253 183 184 233 197 215 212 215 222 189 172
259 253 250 261 271 321 14 1 39 122 332 295 275 310 294 292 308 326 262 213 212 178 243 257 215 205 214 275 199 226 173 141 164 189 234 152 180 233 270 308 193 172 200 187 193
201 216 240 340 310 345 54 50 82 243 248 304 309 305 292 345 319 319 288 205 238 269 294 183 274 168 169 230 210 209 197 175 169 192 155 142 221 236 218 146 96 98 115 135 153
161 148 360 14 341 1 6 57 204 219 295 327 320 37 328 354 313 352 321 319 136 173 206 294 270 62 190 189 190 191 217 204 109 36 109 193 257 312 126 124 116 109 117 116 122
125 96 4 23 350 40 77 261 210 354 331 329 336 58 311 299 6 1 313 328 20 242 264 168 291 266 317 202 209 209 203 212 113 144 186 206 198 194 150 139 131 120 113 115 114
131 158 354 12 12 69 126 233 288 294 299 345 324 311 281 291 224 297 310 298 340 288 210 227 229 267 343 200 192 200 212 234 180 155 171 138 230 151 184 146 128 123 120 123 115
180 83 68 327 84 91 115 198 288 288 286 284 275 249 261 300 297 300 295 269 295 313 255 229 221 278 259 195 179 258 214 200 205 211 229 132 298 325 139 129 125 121 121 115 110
251 158 264 249 136 301 310 286 232 252 282 326 275 25 282 281 312 348 299 334 360 348 316 309 121 314 339 144 10 305 206 194 204 111 211 117 218 4 105 109 124 126 122 122 122
291 14 216 106 102 135 96 273 300 253 236 245 242 259 313 324 287 269 320 337 20 354 333 274 224 185 352 241 286 311 278 171 203 174 196 161 135 136 102 119 127 124 121 123 121
274 255 216 208 278 146 130 231 253 317 223 256 311 273 195 312 305 316 321 309 309 358 339 317 176 250 0 288 269 268 328 158 205 217 189 159 146 160 142 132 131 125 127 124 119
289 190 193 155 150 105 275 255 212 278 199 285 170 301 284 206 215 303 325 356 319 336 343 328 49 56 289 315 275 314 351 61 92 99 58 126 117 143 127 127 128 134 132 128 125
274 248 284 188 189 103 227 231 240 9 259 231 309 315 278 212 287 280 270 266 265 299 319 341 346 6 250 337 7 10 310 15 64 79 134 139 142 133 115 125 137 137 136 132 124